Location: Newark
(46.7636°N, 1.8358°W)
Time: 09:14:02
(UTC+00:00)

Courier 1B - All Passes

Search period start: 19 October 2019 00:00
Search period end: 29 October 2019 00:00
Orbit: 962 x 1209 km, 28.3° (Epoch: 18 October)

Date Brightness Start Highest point End Pass type
(mag) Time Alt. Az. Time Alt. Az. Time Alt. Az.
19 Oct - 18:48:11 10° SSW 18:52:43 17° S 18:57:11 10° SE visible
19 Oct - 20:40:47 10° SW 20:45:40 18° S 20:50:27 10° SE visible
19 Oct - 22:36:05 10° SW 22:38:28 12° SSW 22:40:49 10° S night (unlit)
20 Oct - 17:55:07 10° SSW 17:59:08 15° SSE 18:03:09 10° SE visible
20 Oct - 19:47:01 10° SW 19:52:05 19° S 19:57:04 10° SE visible
20 Oct - 21:41:16 10° SW 21:44:58 14° SSW 21:48:37 10° SSE visible
21 Oct - 17:02:28 10° S 17:05:34 13° SSE 17:08:41 10° SE daylight
21 Oct - 18:53:24 10° SW 18:58:29 19° S 19:03:30 10° SE visible
21 Oct - 20:46:59 10° SW 20:51:25 16° SSW 20:55:48 10° SSE visible
22 Oct - 16:11:09 10° SSE 16:12:02 10° SSE 16:12:55 10° SSE daylight
22 Oct - 18:00:00 10° SSW 18:04:52 18° S 18:09:45 10° SE visible
22 Oct - 19:52:58 10° SW 19:57:52 18° S 20:02:41 10° SSE visible
22 Oct - 21:49:31 10° SSW 21:50:39 10° SSW 21:51:46 10° SSW visible
23 Oct - 17:06:47 10° SSW 17:11:16 16° SSE 17:15:47 10° SE daylight
23 Oct - 18:59:08 10° SW 19:04:15 19° S 19:09:20 10° SE visible
23 Oct - 20:53:54 10° SW 20:57:08 13° SSW 21:00:21 10° S visible
24 Oct - 16:13:54 10° SSW 16:17:42 14° SSE 16:21:32 10° SE daylight
24 Oct - 18:05:29 10° SW 18:10:38 19° S 18:15:48 10° SE visible
24 Oct - 19:59:24 10° SW 20:03:35 15° SSW 20:07:44 10° SSE visible
25 Oct - 15:21:35 10° S 15:24:10 12° SSE 15:26:47 10° SE daylight
25 Oct - 17:12:01 10° SW 17:17:02 19° S 17:22:05 10° SE daylight
25 Oct - 19:05:18 10° SW 19:10:00 17° S 19:14:42 10° SSE visible
26 Oct - 16:18:44 10° SSW 16:23:25 17° S 16:28:11 10° SE daylight
26 Oct - 18:11:25 10° SW 18:16:24 18° S 18:21:24 10° SE visible
26 Oct - 20:06:59 10° SW 20:09:16 11° SSW 20:11:32 10° S visible
27 Oct - 15:25:44 10° SSW 15:29:52 16° SSE 15:34:04 10° SE daylight
27 Oct - 17:17:45 10° SW 17:22:48 19° S 17:27:55 10° SE visible
27 Oct - 19:12:07 10° SW 19:15:43 14° SSW 19:19:20 10° S visible
28 Oct - 14:33:07 10° S 14:36:20 13° SSE 14:39:36 10° SE daylight
28 Oct - 16:24:15 10° SW 16:29:11 19° S 16:34:14 10° SE daylight
28 Oct - 18:17:52 10° SW 18:22:09 16° SSW 18:26:28 10° SSE visible
